Location: Endfield
(51.6667°N, 0.0667°W)
Time: 13:19:24
(UTC+00:00)

Cosmos 220 Rocket - Pass Details

Date: 19 May 2024
Orbit: 560 x 596 km, 74.0° (Epoch: 18 June)

Event Time Altitude Azimuth Distance (km) Brightness Sun altitude
Exits shadow 23:30:31 39° 186° (S) 896 4.4 -18.1°
Maximum altitude 23:32:00 72° 112° (ESE) 631 3.9 -18.1°
Drops below altitude 10° 23:36:19 10° 28° (NNE) 1,940 7.4 -18.2°
Sets 23:38:34 0° 27° (NNE) 2,843 8.5 -18.2°
